[[{"header":{"parameterUnit":"m.s-1","parameterCategory":1,"la1":30.2991,"la2":30.254,"lo1":-89.0895,"lo2":-89.0444,"dy":0.0017,"dx":0.0017,"nx":28,"ny":28,"refTime":"2025-06-17T21:00:00:Z","depth":0,"parameterNumber":2,"parameterNumberName":"U-component_of_WINDS"},"data":[0,0,0,0,0,0,0,0,0,0,0,0,0,0,0,0,0,0,0,0,0,0,0,0,0,0,0,0,0,0,0,0,0,0,0,0,0,0,0,0,0,0,0,0,0,0,0,0,0,0,0,0,0,0,0,0,0,0,0.9772,0.9772,0,0.9846,0.9847,0.9848,0.9863,0.9863,0.9862,0.9862,0.9938,0.994,0.9943,0,0,0,0,0,0,0,0,0,0,0,0,0,0.9642,0.9644,0.9772,0.9772,0.9773,0.9846,0.9847,0.9848,0.9863,0.9863,0.9862,0.9862,0.9937,0.994,0.9943,0,0,0,0,0,0,0,0,0,0,0,0,0,0.9705,0.9645,0.9771,0.979,0.9792,0.9845,0.9847,0.9848,0.9864,0.9863,0.9862,0.9861,0.9936,0.994,0.9943,0.9983,0,0,0.9955,0.9957,0,0,0,0,0,0,0,0,0.9702,0.971,0.9786,0.9789,0.9792,0.9845,0.9829,0.9893,0.9864,0.9837,0.9862,0.9861,0.9907,0.9913,0.9929,0.9987,0.999,0.9955,0.9958,0.9959,0.996,0,0,0,0,0,0,0,0.9697,0.9707,0.9801,0.9787,0.9791,0.9794,0.9802,0.9841,0.9876,0.9839,0.984,0.9849,0.9909,0.9925,0.9931,0.9991,0.9955,0.9959,0.9961,0.9962,1.0083,1.0084,0,0,0,0,0,0,0.969,0.9703,0.9799,0.9803,0.9744,0.9797,0.9806,0.9828,0.9875,0.9882,0.9849,0.9849,0.9919,0.9927,0.9934,0.9982,0.9959,0.9963,0.9965,1.0082,1.0083,1.0084,0,0,0,0,0,0,0.9687,0.9698,0.9796,0.9754,0.9766,0.98,0.9825,0.983,0.9847,0.9883,0.9889,0.986,0.9919,0.9928,0.997,0.9985,0.9964,0.9968,1.0081,1.0082,1.0084,1.008,0,0,0,0,0,0,0.9683,0.9697,0.9713,0.9754,0.9768,0.9831,0.9826,0.9832,0.9854,0.9854,0.9895,0.9901,0.9919,0.9965,0.9974,0.999,0.9971,1.008,1.0082,1.0083,1.0078,1.0081,1.0082,0,0,0,0,0,0.9679,0.9709,0.9714,0.9725,0.9789,0.9832,0.984,0.986,0.9855,0.9871,0.9893,0.99,0.9982,0.9969,0.998,0.9997,1.0079,1.0081,1.0083,1.0078,1.008,1.0082,0,0,0,0,0,0,0.967,0.9715,0.972,0.9765,0.9795,0.9835,0.9855,0.9863,0.9894,0.9893,0.9917,0.9926,0.9966,0.9986,0.997,1.0037,1.003,1.0034,1.0022,1.0025,1.0027,1.0021,0.9974,0,0,0,0,0,0.9673,0.9704,0.9742,0.9778,0.9792,0.9821,0.9841,0.9854,0.9885,0.9897,0.9923,0.9953,0.9986,1.0007,1.0039,1.0082,1.009,1.0099,1.01,1.0102,1.0105,1.0128,1.0131,1.0091,1.0091,1.0091,0,0,0.968,0.9708,0.9727,0.9777,0.9801,0.9832,0.9832,0.9865,0.9888,0.9902,0.9943,0.9963,0.9998,1.004,1.006,1.0058,1.0118,1.0105,1.0105,1.0108,1.013,1.0134,1.0137,1.0092,1.0092,1.0092,0,0,0.9708,0.9734,0.9765,0.9789,0.9826,0.9845,0.9852,0.9891,0.9904,0.9946,0.9956,0.9984,1.004,1.0064,1.0083,1.0119,1.0125,1.0129,1.0139,1.016,1.0163,1.0166,1.0178,1.0182,1.0132,1.0132,1.0132,0,0.9712,0.976,0.9781,0.9813,0.9834,0.9848,0.988,0.9902,0.9947,0.9961,0.9958,1.0027,1.0052,1.0099,1.0107,1.0123,1.0132,1.0124,1.0161,1.0165,1.0168,1.0179,1.0183,1.0132,1.0132,1.0132,1.0132,0,0.9762,0.9795,0.9816,0.9859,0.9882,0.9914,0.9939,0.9961,0.9971,0.999,1.0031,1.0061,1.0098,1.011,1.0121,1.0158,1.0156,1.0157,1.015,1.0171,1.0182,1.0186,1.0132,1.0132,1.0132,1.0132,0,0,0.9787,0.984,0.9847,0.9866,0.9906,0.9932,0.9964,1.0,1.0017,1.0048,1.0074,1.012,1.0121,1.0143,1.0157,1.0176,1.02,1.0175,1.0176,1.0177,1.0241,1.0239,1.0244,1.0205,1.0206,1.0207,1.0238,0,0.9819,0.9877,0.9896,0.9944,0.9973,0.9986,1.0014,1.0042,1.006,1.0087,1.0108,1.0139,1.0139,1.0152,1.0171,1.0193,1.0213,1.0192,1.0229,1.023,1.0219,1.025,1.0248,1.0276,1.0242,1.0243,1.0244,0,0.9864,0.9895,0.9945,0.998,0.9993,1.0018,1.0052,1.0079,1.011,1.0121,1.0145,1.0157,1.019,1.0182,1.0228,1.0212,1.0229,1.0242,1.0244,1.0247,1.0238,1.0253,1.0286,1.029,1.0251,1.025,1.025,0,0.9875,0.9929,0.9965,0.9981,1.0024,1.0041,1.0059,1.0089,1.0109,1.0139,1.0152,1.0185,1.0203,1.0229,1.0249,1.0242,1.0292,1.0286,1.0302,1.0301,1.0311,1.031,1.0346,1.0324,1.0324,1.0323,1.0323,0,0.9909,0.9938,0.9971,0.9993,1.0027,1.0048,1.0081,1.01,1.0126,1.0152,1.0166,1.019,1.0216,1.0243,1.0259,1.0293,1.0302,1.0311,1.0315,1.031,1.0308,1.032,1.0318,1.0325,1.0324,1.0324,1.0324,0,0.9926,0.9949,0.999,1.0026,1.0036,1.0059,1.009,1.0112,1.0131,1.0163,1.0172,1.0201,1.0233,1.0256,1.0298,1.0309,1.0345,1.0349,1.0335,1.0336,1.035,1.0348,1.0394,1.04,1.0375,1.0375,1.0375,0,0.9945,0.9969,1.0007,1.0025,1.0044,1.0073,1.0093,1.0115,1.0135,1.0172,1.0189,1.0222,1.025,1.0301,1.0325,1.0357,1.0362,1.0375,1.0366,1.036,1.036,1.0358,1.036,1.0376,1.0377,1.0377,1.0377,0,0.9976,0.9986,1.0015,1.0047,1.007,1.0097,1.0124,1.0138,1.0164,1.0186,1.0219,1.0241,1.0283,1.0315,1.0349,1.0368,1.0376,1.038,1.0385,1.0379,1.0369,1.0373,1.0337,1.0378,1.0378,1.0378,1.0378,1.0378,0.9994,1.0015,1.0045,1.0076,1.0098,1.0122,1.0144,1.0165,1.0193,1.0229,1.024,1.0274,1.0303,1.0349,1.0368,1.0395,1.0394,1.0402,1.0404,1.0405,1.0404,1.0365,1.0401,1.0401,1.0401,1.0401,1.0401,0,1.0024,1.0044,1.0073,1.0109,1.0133,1.0139,1.0168,1.0188,1.0218,1.0244,1.0271,1.0308,1.0339,1.0366,1.0398,1.0414,1.0419,1.0422,1.042,1.0424,1.0403,1.0395,1.0417,1.0417,1.0417,1.0417,1.0417,1.0417,1.0043,1.0077,1.0091,1.0136,1.0156,1.0189,1.0205,1.0227,1.0248,1.0289,1.0315,1.0332,1.0358,1.0392,1.0421,1.0428,1.0438,1.044,1.0448,1.0428,1.0426,1.0424,1.0416,1.0443,1.0443,1.0466,1.0467,1.0467]},{"header":{"parameterUnit":"m.s-1","parameterCategory":1,"la1":30.2991,"la2":30.254,"lo1":-89.0895,"lo2":-89.0444,"dy":0.0017,"dx":0.0017,"nx":28,"ny":28,"refTime":"2025-06-17T21:00:00:Z","depth":0,"parameterNumber":3,"parameterNumberName":"V-component_of_WINDS"},"data":[0,0,0,0,0,0,0,0,0,0,0,0,0,0,0,0,0,0,0,0,0,0,0,0,0,0,0,0,0,0,0,0,0,0,0,0,0,0,0,0,0,0,0,0,0,0,0,0,0,0,0,0,0,0,0,0,0,0,4.5097,4.5099,0,4.5279,4.5281,4.5283,4.5274,4.5271,4.5269,4.5266,4.5447,4.5454,4.5461,0,0,0,0,0,0,0,0,0,0,0,0,0,4.4734,4.4741,4.5097,4.5099,4.5101,4.5279,4.5281,4.5284,4.5274,4.5271,4.5268,4.5265,4.5445,4.5453,4.5462,0,0,0,0,0,0,0,0,0,0,0,0,0,4.4901,4.4743,4.5096,4.5118,4.5122,4.5278,4.5281,4.5284,4.5275,4.5271,4.5267,4.5264,4.5442,4.5453,4.5463,4.5608,0,0,4.5496,4.5501,0,0,0,0,0,0,0,0,4.4892,4.4915,4.5113,4.5117,4.5122,4.525,4.522,4.5393,4.5276,4.5217,4.5266,4.5262,4.5384,4.54,4.5442,4.5616,4.5624,4.5497,4.5504,4.5509,4.5512,0,0,0,0,0,0,0,4.488,4.4907,4.5169,4.5116,4.5121,4.5117,4.5136,4.5252,4.532,4.5222,4.5221,4.5243,4.5386,4.5432,4.5446,4.5627,4.5497,4.5507,4.5513,4.5518,4.5925,4.5929,0,0,0,0,0,0,4.4865,4.4897,4.5163,4.5174,4.4995,4.5126,4.5148,4.5213,4.5319,4.5331,4.5247,4.5242,4.5415,4.5434,4.5453,4.5627,4.5509,4.5519,4.5525,4.592,4.5926,4.593,0,0,0,0,0,0,4.4857,4.4889,4.5156,4.5036,4.5069,4.5137,4.5209,4.5218,4.5264,4.5338,4.5349,4.5281,4.5413,4.5437,4.5569,4.5633,4.5524,4.5533,4.5915,4.5922,4.5928,4.5977,0,0,0,0,0,0,4.4847,4.4886,4.4943,4.5037,4.5076,4.5271,4.5213,4.5225,4.5283,4.528,4.5373,4.5385,4.5412,4.5553,4.558,4.5646,4.5542,4.591,4.5918,4.5926,4.597,4.5985,4.5997,0,0,0,0,0,4.4834,4.495,4.4946,4.4979,4.515,4.5275,4.5297,4.5327,4.5289,4.5346,4.5392,4.5382,4.5622,4.5566,4.5597,4.5667,4.5906,4.5916,4.5925,4.5964,4.5982,4.5997,0,0,0,0,0,0,4.486,4.4962,4.496,4.511,4.5184,4.5273,4.5346,4.5345,4.543,4.5423,4.5454,4.5475,4.5607,4.565,4.5587,4.5811,4.5759,4.5775,4.5778,4.5795,4.5808,4.5795,4.5551,0,0,0,0,0,4.4884,4.498,4.5063,4.5187,4.5224,4.5279,4.5335,4.5351,4.5428,4.5459,4.5516,4.5589,4.5681,4.574,4.5829,4.5976,4.5995,4.6039,4.6053,4.6063,4.6077,4.6155,4.6175,4.5962,4.5962,4.5962,0,0,4.4933,4.5001,4.5059,4.5194,4.5253,4.5349,4.5305,4.5409,4.5479,4.5474,4.5602,4.5646,4.5729,4.5869,4.5933,4.5909,4.6139,4.6076,4.6084,4.6091,4.6167,4.6187,4.6205,4.5969,4.5968,4.5967,0,0,4.5072,4.5134,4.5243,4.5303,4.5393,4.5429,4.5455,4.5544,4.5573,4.5702,4.57,4.5782,4.594,4.6,4.605,4.6208,4.6201,4.6236,4.6306,4.6381,4.6398,4.6413,4.6467,4.6487,4.6249,4.6249,4.6249,0,4.5121,4.5267,4.5298,4.5403,4.5461,4.5462,4.557,4.5627,4.5741,4.578,4.5751,4.5948,4.6005,4.6156,4.6195,4.6237,4.6265,4.6225,4.6394,4.6409,4.6423,4.6475,4.6496,4.6253,4.6252,4.6252,4.6252,0,4.5322,4.5423,4.55,4.5611,4.5678,4.5784,4.5829,4.5892,4.5902,4.5939,4.6068,4.6136,4.6237,4.6274,4.6285,4.6427,4.6409,4.6387,4.6335,4.6447,4.6496,4.6516,4.6258,4.6257,4.6256,4.6255,0,0,4.5483,4.561,4.5637,4.5686,4.5785,4.5863,4.5967,4.6067,4.612,4.6198,4.6284,4.6417,4.6396,4.6454,4.6471,4.6537,4.6655,4.6507,4.6509,4.653,4.6813,4.6828,4.6851,4.6651,4.6655,4.6658,4.6805,0,4.5631,4.5819,4.5848,4.6012,4.6104,4.6105,4.6195,4.6264,4.6301,4.6382,4.6422,4.6515,4.6482,4.6516,4.6583,4.6627,4.6712,4.6617,4.6729,4.6733,4.6707,4.6877,4.6894,4.7029,4.6824,4.6828,4.683,0,4.5828,4.5912,4.6085,4.6169,4.6209,4.629,4.6383,4.6462,4.6538,4.656,4.6624,4.6632,4.6737,4.6681,4.6825,4.6759,4.6806,4.6835,4.6841,4.6851,4.6788,4.689,4.7073,4.7093,4.6861,4.6859,4.6857,0,4.5926,4.6082,4.6205,4.6248,4.635,4.6406,4.6451,4.6524,4.6581,4.6661,4.6698,4.6789,4.6838,4.6907,4.6939,4.6895,4.7079,4.7027,4.7098,4.7097,4.7136,4.7133,4.7328,4.7169,4.7169,4.7169,4.7168,0,4.6086,4.6192,4.625,4.6326,4.6443,4.6475,4.6589,4.6631,4.6696,4.6778,4.6783,4.6859,4.6897,4.6978,4.7003,4.7116,4.7139,4.7158,4.7163,4.7157,4.7154,4.7187,4.7178,4.7174,4.7173,4.7172,4.7171,0,4.6215,4.6259,4.6393,4.6478,4.6502,4.6584,4.6656,4.6727,4.6763,4.6866,4.6892,4.6948,4.7043,4.7082,4.7198,4.7215,4.7345,4.7343,4.7319,4.7321,4.7389,4.7382,4.7612,4.7642,4.7464,4.7466,4.7467,0,4.6315,4.6396,4.6489,4.6545,4.6592,4.6682,4.6741,4.6774,4.6834,4.6926,4.6986,4.7082,4.716,4.7312,4.7361,4.7449,4.7449,4.7523,4.7462,4.7452,4.7447,4.7442,4.7449,4.7534,4.7536,4.7537,4.7538,0,4.6485,4.6502,4.6588,4.668,4.675,4.6824,4.6896,4.6941,4.6984,4.7051,4.715,4.721,4.7329,4.7422,4.7513,4.7556,4.7554,4.7557,4.7578,4.7572,4.7554,4.7563,4.7348,4.7552,4.755,4.7549,4.7549,4.7548,4.6601,4.6672,4.6749,4.6843,4.69,4.6967,4.7038,4.7083,4.7166,4.7266,4.728,4.7384,4.7456,4.7578,4.7624,4.7704,4.7685,4.7716,4.7723,4.773,4.7734,4.7542,4.7721,4.7721,4.772,4.772,4.772,0,4.677,4.6819,4.6905,4.7006,4.7079,4.7072,4.715,4.7211,4.7304,4.7372,4.7448,4.7559,4.765,4.7706,4.7796,4.7849,4.785,4.7871,4.7867,4.7876,4.7747,4.7719,4.7869,4.7869,4.7869,4.7869,4.7869,4.7869,4.6866,4.6986,4.7012,4.7158,4.7206,4.731,4.7355,4.7415,4.7469,4.7593,4.7669,4.7705,4.7767,4.7862,4.7943,4.7957,4.7989,4.8012,4.8024,4.7901,4.7886,4.7871,4.7845,4.8019,4.8019,4.8146,4.8147,4.8148]}]]